Weather in Khouribga

Morocco     32°52′44″N   6°54′37″W
temp.,
°C
wind,
m/s
gust,
m/s
humid.,
%
clouds,
%
prec.,
mm/h
press.,
hPa
HPBL,
m
9 march, tue
tue901:00+5n339853 0.1 101941
04:00+5n229856 0.1 101752
07:00+5n339541 0.1 101758
10:00+8n448535 0.0 1018479
13:00+10nnw447458 0.3 1018787
16:00+11nnw546884 0.1 1017819
19:00+8nnw468161 0.2 1017351
22:00+5n34940 0.0 102051
10 march, wed
wed1001:00+4ne34930 0.0 102136
04:00+4ne34929 0.0 102141
07:00+3ne23916 0.0 102122
10:00+8ne34730 0.0 1023265
13:00+13nne45480 0.0 10221029
16:00+15ne67470 0.0 10211282
19:00+12nne610670 0.0 1022319
22:00+8nne59940 0.0 1025159
11 march, thu
thu1101:00+7ne57943 0.0 1025117
04:00+6ne34920 0.0 102426
07:00+6ene34830 0.0 102527
10:00+12e45550 0.0 1026247
13:00+17n43390 0.0 1025944
16:00+18n55380 0.0 10231111
19:00+14n56630 0.0 1024119
22:00+9nne45890 0.0 102665
12 march, fri
fri1201:00+8ne34890 0.0 102527
04:00+6ne22880 0.0 102322
07:00+5ne22900 0.0 102322
10:00+12nne23700 0.0 1024197
13:00+17n54500 0.0 1024717
16:00+18n55430 0.0 1021962
19:00+13n68790 0.0 1021295
22:00+9nne46999 0.0 1023117
13 march, sat
sat1301:00+8ne359837 0.0 1023101
04:00+7ne349527 0.0 102142
07:00+6ne349013 0.0 102130
10:00+12ne34680 0.0 1022222
13:00+18nne43470 0.0 1021791
16:00+19n55520 0.0 1019912
19:00+14n78870 0.0 1020372
22:00+12nne579760 0.0 1022273